www.pogodaiklimat.ru

Погода и климат >> Архив погоды >> Россия >> Хабаровский край >> Гвасюги


ПОГОДА в Гвасюгах

  • Прогноз погоды в Гвасюгах
  • Монитор погоды в Гвасюгах

АРХИВ ПОГОДЫ в Гвасюгах

Время (UTC), дата Ветер
(напр.,м/с)
 
Видим.   Явления Облачность Т
(С)
Тd
(С)
f
(%)
Тe
(С)
Тes
(С)
Комфортность P
(гПа)
Po
(гПа)
Тmin
(С)
Tmax
(С)
R
(мм)
R24
(мм)
S
(см)
21 15.09 С 1 500 м туман ?/? +7.1 +6.5 96 +6 +6 1010.4 988.6 +5.1
00 16.09 штиль 0 20 км в посл. час туман 10/10 600 м
[Sc]
+8.9 +8.3 96 +8 +8 1011.4 989.7
03 16.09 ЮЗ 1 50 км {дождь} 9/8 600 м
[Sc Ac As]
+14.9 +10.5 75 +15 +17 1010.2 989.0
06 16.09 З 2 50 км {дождь} 6/6 600 м
[Cb calv]
+18.4 +9.3 55 +19 +21 1008.8 987.9
09 16.09 СЗ 3 50 км 3/0
[Ac lent]
+13.1 -0.1 40 +12 +12 1011.4 990.0 +18.7 0.3
12 16.09 штиль 0 50 км ясно +3.3 +2.6 95 +2 +2 1014.6 992.4
15 16.09 штиль 0 50 км ясно +0.5 +0.1 97 -1 -1 1016.1 993.6
18 16.09 С 1 500 м туман 10/0
[Cs]
-0.6 -1.0 97 -3 -3 1016.6 994.0
21 16.09 С 1 500 м туман ?/? +0.2 -0.1 98 -2 -2 1017.4 994.9 -1.2
00 17.09 штиль 0 500 м туман 9/9 600 м
[St]
+4.6 +4.2 97 +3 +4 1017.5 995.4
03 17.09 ЮВ 3 50 км {туман} ясно +15.4 +1.7 39 +15 +23 1014.5 993.2
06 17.09 ЮЗ 2 50 км {туман} ясно +18.3 -0.3 28 +19 +24 1012.9 991.9
09 17.09 штиль 0 50 км 1/0
[Ci fib]
+10.4 +7.2 81 +10 +10 1012.6 991.0 +18.3
12 17.09 С 1 50 км 3/0
[Ci fib]
+3.7 +2.9 95 +2 +2 1013.2 991.1
15 17.09 штиль 0 50 км 6/0
[Ci sp]
+1.5 +1.0 96 0 0 1011.7 989.4
18 17.09 С 1 20 км местами туман поземный 10/5 600 м
[Frnb Cs]
+0.3 -0.1 97 -2 -2 1008.6 986.3 -1.1
21 17.09 С 1 20 км местами туман поземный 10/5 600 м
[Frnb Cs]
+0.2 -0.2 97 -2 -2 1005.9 983.6 -1.1
00 18.09 Ю 2 10 км слаб. дождь 10/8 600 м
[Sc As op]
+6.1 +4.2 88 +4 +4 1005.7 983.9
03 18.09 Ю 3
{10}
20 км в посл. час дождь 10/9 600 м
[Frnb As op]
+7.6 +5.7 88 +5 +5 1006.0 984.3
06 18.09 З 2 10 км слаб. дождь 10/8 600 м
[Sc Ac As]
+6.9 +3.8 81 +5 +5 1006.6 984.8
09 18.09 Ю 2 20 км в посл. час ливневой дождь 10/10 600 м
[Cb cap]
+4.7 +2.6 86 +2 +2 1007.2 985.3 +8.6 6
12 18.09 ЮЗ 1 10 км слаб. ливневой дождь 10/10 600 м
[Cb cap]
+3.9 +2.6 91 +2 +2 1006.5 984.6
15 18.09 Ю 2 10 км слаб. ливневой дождь 10/10 600 м
[Cb cap]
+3.4 +2.4 93 0 0 1004.6 982.6
18 18.09 Ю 3 10 км слаб. дождь 10/3 600 м
[Sc As op]
+2.7 +1.9 94 -2 -2 1002.3 980.3
21 18.09 ЮЗ 2 н/о н/о +2.2 +1.5 95 -1 -1 1001.4 979.4 +2.1
00 19.09 Ю 3 20 км слаб. дождь 10/4 600 м
[St As op]
+2.8 +1.8 93 -1 -1 1002.0 980.0
03 19.09 ЮЗ 2 10 км слаб. дождь 10/4 600 м
[St As op]
+4.1 +2.9 92 +1 +2 1003.1 981.2
06 19.09 ЮВ 1 20 км в посл. час дождь 10/8 600 м
[Frnb As op]
+6.1 +5.0 93 +5 +5 1005.1 983.3
09 19.09 ЮЗ 1 10 км слаб. дождь 10/8 600 м
[Frnb As op]
+7.1 +5.4 89 +6 +6 1007.5 985.7 +7.3 5
12 19.09 СЗ 1 10 км слаб. дождь 10/8 600 м
[Sc As op]
+7.7 +5.9 88 +7 +7 1009.8 988.1
15 19.09 ЮЗ 1 20 км {дождь} 4/0
[Ac lent Ci fib]
+5.6 +4.9 95 +4 +4 1011.1 989.2
18 19.09 штиль 0 20 км {дождь} 9/4 600 м
[Sc Ac trans]
+4.7 +4.1 96 +4 +4 1012.4 990.4
21 19.09 ЮЗ 1 20 км 4/3 600 м
[St Ci fib]
+3.6 +3.1 97 +2 +2 1014.9 992.7 +3.5 4
00 20.09 Ю 2 20 км 9/9 600 м
[St]
+8.4 +5.4 81 +7 +7 1016.9 995.0
03 20.09 Ю 1 50 км 6/6 600 м
[Cu hum]
+13.3 +5.3 58 +14 +18 1017.5 996.0
06 20.09 Ю 2 50 км 6/6 600 м
[Cu hum]
+14.5 +5.4 54 +14 +16 1017.2 995.8
09 20.09 штиль 0 50 км 1/1 600 м
[Sc diur, vesp]
+9.2 +7.3 88 +8 +8 1018.9 997.1 +15.7
12 20.09 С 1 50 км ясно +3.3 +2.7 96 +2 +2 1021.1 998.8
15 20.09 С 1 1000 м туман на расстоянии 10/0
[Cs]
+2.5 +2.1 97 +1 +1 1022.2 999.7
18 20.09 С 1 500 м туман ?/? +3.0 +2.6 97 +1 +1 1021.3 998.9
21 20.09 С 1 2000 м туман на расстоянии 10/3 600 м
[Sc Cs]
+2.3 +2.0 98 0 0 1020.4 998.0 +2.2
00 21.09 В 1 50 км {туман} 10/3 600 м
[Sc Ac trans Cs]
+9.4 +4.7 72 +9 +11 1019.5 997.7
03 21.09 Ю 1 10 км слаб. дождь 10/0
[]
+10.8 +7.3 79 +11 +16 1018.3 996.6
06 21.09 штиль 0 10 км слаб. дождь 10/3 600 м
[Sc As op]
+9.7 +8.5 92 +9 +10 1017.3 995.5
09 21.09 Ю 1 10 км слаб. дождь 10/0
[]
+9.2 +8.3 94 +8 +8 1018.2 996.4 +11.6 6
12 21.09 Ю 1 10 км слаб. дождь 10/10 600 м
[Frnb Ns]
+8.4 +7.6 95 +8 +8 1020.3 998.4
15 21.09 Ю 1 20 км {дождь} 10/9 600 м
[Frnb As op]
+8.5 +7.6 94 +8 +8 1020.7 998.8
18 21.09 ЮЗ 1 20 км {дождь} 10/6 600 м
[Sc As op]
+8.4 +7.5 94 +8 +8 1021.0 999.1
21 21.09 З 1 50 км 9/8 600 м
[Frnb Ac trans]
+7.7 +6.7 93 +7 +7 1022.4 1000.4 +7.7 2
00 22.09 Ю 2 50 км 9/9 600 м
[Frnb]
+9.4 +5.9 79 +8 +8 1023.1 1001.2 +7.6
03 22.09 ЮЗ 3 50 км 8/8 600 м
[Cu med, cong]
+13.1 +5.0 58 +12 +14 1022.4 1000.8
06 22.09 Ю 2 50 км 4/4 600 м
[Cu hum]
+16.1 +5.1 48 +16 +19 1020.5 999.2
09 22.09 штиль 0 50 км ясно +10.2 +7.6 84 +10 +10 1021.7 999.8 +16.4
12 22.09 штиль 0 50 км ясно +4.3 +3.7 96 +3 +3 1023.5 1001.2
15 22.09 С 1 50 км ясно +2.7 +2.3 97 +1 +1 1022.5 1000.1

 

Местоположение метеостанции Гвасюги (Хабаровский край, Россия): широта 47.67 долгота 136.10 высота над уровнем моря 180 м.

В архиве по умолчанию представлена погода в Гвасюгах за последнюю неделю. Архивные данные за месяц целиком и за предыдущие месяцы, начиная с января 2011 года, Вы можете получить, выбрав интересующий диапазон дат из раскрывающегося списка и нажав кнопку "Ввод!".


*Определитесь, кто Вы:
робот инопланетянин человек

Внимание! Время в таблицах - всемирное. Для получения местного времени необходимо прибавить поправку, которая равна 10 ч.

Смотрите также архив погоды в соседних городах и на ближайших метеорологических станциях:

Погода в Бичевой (Хабаровский край, Россия) (39 км)
Погода в Оборе (Хабаровский край, Россия) (58 км)
Погода в Георгиевке (Хабаровский край, Россия) (74 км)
Погода в Хоре (Хабаровский край, Россия) (89 км)
Погода в Князе-Волконском (Хабаровский край, Россия) (102 км)
Погода в Сукпае (Хабаровский край, Россия) (105 км)
Погода в Хабаровске 21 км (Хабаровский край, Россия) (105 км)
Погода в Вяземском (Хабаровский край, Россия) (106 км)
Погода в Хабаровске Аэр. Большой (Хабаровский край, Россия) (113 км)
Погода в Бычихе (Хабаровский край, Россия) (118 км)

Пояснения к столбцам:

Ветер - указаны скорость ветра в м/с - средняя за 10 мин, порывы в срок и между сроками (в фигурных скобках) и направление, откуда дует ветер: С - северный, СВ - северо-восточный, В - восточный, ЮВ - юго-восточный, Ю - южный, ЮЗ - юго-западный, З - западный, СЗ - северо-западный.
Видимость - горизонтальная дальность видимости в метрах или километрах. При видимости от 1 до 10 км при отсутствии осадков обычно наблюдается дымка, при ухудшении видимости до 1 км и менее - туман. В сухую погоду видимость может ухудшаться дымом, пылью или мглою.
Явления - указаны атмосферные явления, наблюдавшиеся в срок или в последний час перед сроком; фигурными скобками обозначены явления, наблюдавшиеся между сроками (за 1-3 часа до срока); квадратными скобками обозначены град или гололедные отложения с указанием их диаметра в мм.
Облачность - указаны через наклонную черту общая и нижняя облачность в баллах и высота нижней границы облаков в метрах; квадратными скобками обозначены формы облаков: Ci - перистые, Cs - перисто-слоистые, Cc - перисто-кучевые, Ac - высококучевые, As - высокослоистые, Sc - слоисто-кучевые, Ns - слоисто-дождевые, Cu - кучевые, Cb - кучево-дождевые. Подробнее классификацию облаков см. в Атласе облаков (PDF).
T - Температура воздуха - температура, измеренная на высоте 2 м над землей.
Td - Температура точки росы - температура, при понижении до которой содержащийся в воздухе водяной пар достигнет насыщения.
f - Относительная влажность воздуха - влажноcть воздуха, измеренная на высоте 2 м над землей.
Te - Эффективная температура - температура, которую ощущает одетый по сезону человек в тени. Характеристика душности погоды. При расчете учитывается влияние влажности воздуха и скорости ветра на теплоощущения человека.
Tes - Эффективная температура на солнце - температура, которую ощущает человек, с поправкой на солнечный нагрев. Характеристика знойности погоды. Зависит от высоты солнца над горизонтом, облачности и скорости ветра. Ночью, в пасмурную погоду, а также при ветре 12 м/с и более поправка равна нулю.
P - Атмосферное давление - приведенное к уровню моря атмосферное давление.
Po - Атмосферное давление - измеренное на уровне метеостанции атмосферное давление.
Tmin - Минимальная температура - минимум температуры воздуха на высоте 2 м над землей.
Tmax - Максимальная температура - максимум температуры воздуха на высоте 2 м над землей.
R - Количество осадков - Количество выпавших осадков за период времени, мм. При наведении курсора мыши на число - период времени, за который выпало указанное количество осадков.
R24 - Количество осадков - Количество выпавших осадков за 24 часа, мм.
S - Снежный покров - Высота снежного покрова, см. При наведении курсора мыши на число - состояние снежного покрова и степень покрытия местности в баллах.